Meteo pe oră la Bolshoe Aldarkino

Astăzi, 9 Mai, Duminică

Timp Temperatura Precipitaţii Vânt Presiune Umiditate
00:00 +15°C° 0 mm 2 m/s 748 mmHg 57%
01:00 +14°C° 0 mm 2 m/s 748 mmHg 59%
02:00 +12°C° 0 mm 3 m/s 748 mmHg 62%
03:00 +12°C° 0 mm 3 m/s 748 mmHg 65%
04:00 +13°C° 0 mm 3 m/s 748 mmHg 64%
05:00 +15°C° 0 mm 2 m/s 748 mmHg 63%
06:00 +16°C° 0 mm 2 m/s 748 mmHg 62%
07:00 +18°C° 0 mm 3 m/s 748 mmHg 54%
08:00 +20°C° 0 mm 3 m/s 748 mmHg 47%
09:00 +22°C° 0 mm 4 m/s 748 mmHg 39%
10:00 +22°C° 0 mm 4 m/s 748 mmHg 37%
11:00 +23°C° 0 mm 4 m/s 748 mmHg 35%
12:00 +25°C° 0 mm 4 m/s 748 mmHg 33%
13:00 +25°C° 0 mm 4 m/s 748 mmHg 33%
14:00 +25°C° 0 mm 4 m/s 748 mmHg 33%
15:00 +26°C° 0 mm 4 m/s 748 mmHg 33%
16:00 +24°C° 0 mm 3 m/s 748 mmHg 39%
17:00 +22°C° 0 mm 3 m/s 748 mmHg 45%
18:00 +21°C° 0 mm 2 m/s 748 mmHg 51%
19:00 +20°C° 0 mm 2 m/s 748 mmHg 52%
20:00 +19°C° 0 mm 3 m/s 748 mmHg 53%
21:00 +18°C° 0 mm 3 m/s 748 mmHg 55%
22:00 +17°C° 0 mm 3 m/s 749 mmHg 55%
23:00 +17°C° 0 mm 3 m/s 749 mmHg 55%

Mâine, 10 Mai, Luni

Timp Temperatura Precipitaţii Vânt Presiune Umiditate
00:00 +16°C° 0 mm 3 m/s 749 mmHg 55%
01:00 +16°C° 0 mm 3 m/s 749 mmHg 57%
02:00 +14°C° 0 mm 3 m/s 749 mmHg 58%
03:00 +14°C° 0 mm 3 m/s 749 mmHg 59%
04:00 +14°C° 0 mm 3 m/s 750 mmHg 59%
05:00 +16°C° 0 mm 3 m/s 750 mmHg 59%
06:00 +17°C° 0 mm 3 m/s 750 mmHg 59%
07:00 +19°C° 0 mm 4 m/s 750 mmHg 53%
08:00 +21°C° 0 mm 4 m/s 751 mmHg 47%
09:00 +23°C° 0 mm 5 m/s 751 mmHg 41%
10:00 +23°C° 0 mm 4 m/s 751 mmHg 39%
11:00 +25°C° 0 mm 4 m/s 751 mmHg 37%
12:00 +26°C° 0 mm 4 m/s 751 mmHg 35%
13:00 +26°C° 0 mm 4 m/s 751 mmHg 36%
14:00 +26°C° 0 mm 4 m/s 751 mmHg 36%
15:00 +26°C° 0 mm 3 m/s 751 mmHg 37%
16:00 +25°C° 0 mm 3 m/s 752 mmHg 42%
17:00 +24°C° 0 mm 3 m/s 752 mmHg 47%
18:00 +21°C° 0 mm 3 m/s 752 mmHg 52%
19:00 +20°C° 0 mm 3 m/s 752 mmHg 54%
20:00 +19°C° 0 mm 3 m/s 752 mmHg 57%
21:00 +17°C° 0 mm 3 m/s 753 mmHg 59%
22:00 +17°C° 0 mm 2 m/s 753 mmHg 60%
23:00 +16°C° 0 mm 2 m/s 753 mmHg 61%

Poimâine, 11 Mai, Marţi

Timp Temperatura Precipitaţii Vânt Presiune Umiditate
00:00 +16°C° 0 mm 2 m/s 753 mmHg 62%
01:00 +15°C° 0 mm 2 m/s 753 mmHg 64%
02:00 +15°C° 0 mm 2 m/s 754 mmHg 66%
03:00 +15°C° 0 mm 2 m/s 754 mmHg 68%
04:00 +16°C° 0 mm 2 m/s 755 mmHg 66%
05:00 +16°C° 0 mm 1 m/s 755 mmHg 65%
06:00 +18°C° 0 mm 1 m/s 755 mmHg 64%
07:00 +19°C° 0 mm 2 m/s 756 mmHg 58%
08:00 +20°C° 0 mm 2 m/s 756 mmHg 53%
09:00 +23°C° 0 mm 2 m/s 756 mmHg 48%
10:00 +24°C° 0 mm 3 m/s 756 mmHg 44%
11:00 +25°C° 0 mm 3 m/s 756 mmHg 40%
12:00 +26°C° 0 mm 3 m/s 756 mmHg 36%
13:00 +26°C° 0 mm 3 m/s 756 mmHg 36%
14:00 +26°C° 0 mm 4 m/s 756 mmHg 35%
15:00 +26°C° 0 mm 4 m/s 756 mmHg 35%
16:00 +25°C° 0 mm 3 m/s 756 mmHg 41%
17:00 +24°C° 0 mm 3 m/s 756 mmHg 46%
18:00 +23°C° 0 mm 2 m/s 756 mmHg 52%
19:00 +21°C° 0 mm 2 m/s 757 mmHg 53%
20:00 +20°C° 0 mm 2 m/s 757 mmHg 53%
21:00 +19°C° 0 mm 2 m/s 757 mmHg 54%
22:00 +18°C° 0 mm 2 m/s 757 mmHg 56%
23:00 +17°C° 0 mm 2 m/s 757 mmHg 59%

12 Mai, Miercuri

Timp Temperatura Precipitaţii Vânt Presiune Umiditate
00:00 +16°C° 0 mm 2 m/s 757 mmHg 61%
01:00 +16°C° 0 mm 2 m/s 757 mmHg 62%
02:00 +15°C° 0 mm 2 m/s 757 mmHg 64%
03:00 +15°C° 0 mm 2 m/s 757 mmHg 65%
04:00 +16°C° 0 mm 2 m/s 757 mmHg 64%
05:00 +16°C° 0 mm 2 m/s 757 mmHg 62%
06:00 +17°C° 0 mm 3 m/s 758 mmHg 61%
07:00 +19°C° 0 mm 3 m/s 758 mmHg 55%
08:00 +21°C° 0 mm 3 m/s 758 mmHg 50%
09:00 +23°C° 0 mm 4 m/s 758 mmHg 45%
10:00 +25°C° 0 mm 3 m/s 758 mmHg 42%
11:00 +25°C° 0 mm 3 m/s 758 mmHg 40%
12:00 +26°C° 0 mm 3 m/s 758 mmHg 37%
13:00 +26°C° 0 mm 3 m/s 758 mmHg 37%
14:00 +27°C° 0 mm 3 m/s 757 mmHg 37%
15:00 +27°C° 0 mm 3 m/s 757 mmHg 36%
16:00 +26°C° 0 mm 3 m/s 757 mmHg 42%
17:00 +25°C° 0 mm 2 m/s 757 mmHg 47%
18:00 +24°C° 0 mm 2 m/s 757 mmHg 53%
19:00 +23°C° 0 mm 2 m/s 757 mmHg 55%
20:00 +20°C° 0 mm 2 m/s 757 mmHg 56%
21:00 +19°C° 0 mm 3 m/s 757 mmHg 58%
22:00 +18°C° 0 mm 3 m/s 757 mmHg 62%
23:00 +17°C° 0 mm 3 m/s 757 mmHg 66%

13 Mai, Joi

Timp Temperatura Precipitaţii Vânt Presiune Umiditate
00:00 +16°C° 0 mm 3 m/s 757 mmHg 70%
01:00 +16°C° 0 mm 3 m/s 757 mmHg 71%
02:00 +14°C° 0 mm 3 m/s 757 mmHg 72%
03:00 +15°C° 0 mm 2 m/s 757 mmHg 73%
04:00 +16°C° 0 mm 2 m/s 757 mmHg 70%
05:00 +17°C° 0 mm 2 m/s 757 mmHg 67%
06:00 +18°C° 0 mm 2 m/s 757 mmHg 64%
07:00 +20°C° 0 mm 2 m/s 757 mmHg 57%
08:00 +23°C° 0 mm 2 m/s 757 mmHg 50%
09:00 +25°C° 0 mm 3 m/s 757 mmHg 43%
10:00 +26°C° 0 mm 3 m/s 757 mmHg 40%
11:00 +26°C° 0 mm 3 m/s 757 mmHg 36%
12:00 +27°C° 0 mm 3 m/s 757 mmHg 33%
13:00 +27°C° 0 mm 3 m/s 757 mmHg 33%
14:00 +28°C° 0 mm 3 m/s 757 mmHg 33%
15:00 +28°C° 0 mm 3 m/s 756 mmHg 33%
16:00 +27°C° 0 mm 2 m/s 756 mmHg 39%
17:00 +26°C° 0 mm 2 m/s 756 mmHg 45%
18:00 +25°C° 0 mm 1 m/s 756 mmHg 50%
19:00 +23°C° 0 mm 1 m/s 756 mmHg 53%
20:00 +22°C° 0 mm 1 m/s 756 mmHg 55%
21:00 +20°C° 0 mm 1 m/s 756 mmHg 57%
22:00 +20°C° 0 mm 1 m/s 756 mmHg 58%
23:00 +19°C° 0 mm 1 m/s 756 mmHg 59%

14 Mai, Vineri

Timp Temperatura Precipitaţii Vânt Presiune Umiditate
00:00 +19°C° 0 mm 1 m/s 757 mmHg 60%
01:00 +18°C° 0 mm 1 m/s 757 mmHg 61%
02:00 +18°C° 0 mm 1 m/s 757 mmHg 62%
03:00 +18°C° 0 mm 1 m/s 757 mmHg 63%
04:00 +19°C° 0 mm 1 m/s 757 mmHg 61%
05:00 +20°C° 0 mm 1 m/s 757 mmHg 59%
06:00 +21°C° 0 mm 1 m/s 757 mmHg 58%
07:00 +23°C° 0 mm 2 m/s 757 mmHg 51%
08:00 +25°C° 0 mm 2 m/s 757 mmHg 45%
09:00 +27°C° 0 mm 2 m/s 757 mmHg 39%
10:00 +28°C° 0 mm 3 m/s 757 mmHg 37%
11:00 +28°C° 0 mm 3 m/s 757 mmHg 34%
12:00 +29°C° 0 mm 3 m/s 757 mmHg 32%
13:00 +29°C° 0 mm 3 m/s 757 mmHg 32%
14:00 +29°C° 0 mm 3 m/s 757 mmHg 32%
15:00 +29°C° 0 mm 3 m/s 756 mmHg 32%
16:00 +28°C° 0 mm 3 m/s 756 mmHg 37%
17:00 +27°C° 0 mm 2 m/s 756 mmHg 43%
18:00 +26°C° 0 mm 2 m/s 756 mmHg 48%
19:00 +24°C° 0 mm 2 m/s 756 mmHg 50%
20:00 +23°C° 0 mm 1 m/s 756 mmHg 52%
21:00 +21°C° 0 mm 1 m/s 756 mmHg 54%
22:00 +21°C° 0 mm 1 m/s 756 mmHg 55%
23:00 +20°C° 0 mm 1 m/s 756 mmHg 57%
Arată mai mult

Formular de consimțământ

Meteoprog și furnizorii noștri de servicii pot stoca și accesa date personale, precum cookies, identificatori de dispozitiv sau alte tehnologii similare pe dispozitivul dumneavoastră și procesa astfel de date pentru a personaliza conținutul și reclamele, dar și pentru a oferi caracteristici de social media și pentru a analiza traficul.

  • Stocarea și/sau accesarea informațiilor pe dispozitivul dumneavoastră

    Cookies, identificatori de dispozitiv sau alte informații pot fi stocate sau accesate pe dispozitiv în scopurile indicate mai sus.

  • Reclame și conținut personalizat, evaluarea reclamelor și a conținutului, informații despre audiențe și dezvoltarea produselor

    Reclamele și conținutul pot fi personalizate pe baza unui profil. Pot fi adăugate date suplimentare pentru a personaliza mai bine reclamele și conținutul. Performanța reclamelor și conținutului poate fi măsurată. Pot fi obținute informații despre utilizatorii care au văzut reclamele și conținutul. Aceste date pot fi utilizate pentru a dezvolta sau îmbunătăți experiența utilizatorilor, sistemele și software-ul.

Dând clic pe ‘Sunt de acord’, permiteți utilizarea cookie-urilor menționate, a identificatorilor de dispozitiv, balizelor web sau altor tehnologii similare. Setările pot fi modificate din browser-ul dispozitivului dumneavoastră.

În anumite scopuri, interesele legitime pot prima asupra consimțământului. Puteți citi mai multe informații în acest sens în Politica privind Confidențialitatea Datelor și Cookie.